TimeCST,TemperatureF,Dew PointF,Humidity,Sea Level PressureIn,VisibilityMPH,Wind Direction,Wind SpeedMPH,Gust SpeedMPH,PrecipitationIn,Events,Conditions,WindDirDegrees,DateUTC
12:12 AM,23.0,19.4,86,29.75,10.0,West,3.5,-,N/A,,Overcast,280,2013-02-13 06:12:00
12:33 AM,23.0,19.4,86,29.74,10.0,Calm,Calm,-,N/A,,Overcast,0,2013-02-13 06:33:00
12:53 AM,23.0,19.4,86,29.74,10.0,Calm,Calm,-,N/A,,Overcast,0,2013-02-13 06:53:00
1:13 AM,23.0,19.4,86,29.74,10.0,Calm,Calm,-,N/A,,Overcast,0,2013-02-13 07:13:00
1:32 AM,23.0,19.4,86,29.73,10.0,Calm,Calm,-,N/A,,Overcast,0,2013-02-13 07:32:00
1:53 AM,23.0,19.4,86,29.73,10.0,Calm,Calm,-,N/A,,Overcast,0,2013-02-13 07:53:00
2:11 AM,23.0,19.4,86,29.72,10.0,Calm,Calm,-,N/A,,Overcast,0,2013-02-13 08:11:00
2:33 AM,23.0,19.4,86,29.72,10.0,Calm,Calm,-,N/A,,Overcast,0,2013-02-13 08:33:00
2:52 AM,23.0,19.4,86,29.72,10.0,Calm,Calm,-,N/A,,Overcast,0,2013-02-13 08:52:00
3:12 AM,23.0,19.4,86,29.73,10.0,West,3.5,-,N/A,,Overcast,260,2013-02-13 09:12:00
3:33 AM,23.0,19.4,86,29.72,10.0,Calm,Calm,-,N/A,,Overcast,0,2013-02-13 09:33:00
3:52 AM,23.0,19.4,86,29.71,10.0,West,4.6,-,N/A,,Overcast,270,2013-02-13 09:52:00
4:13 AM,24.8,19.4,80,29.71,10.0,West,3.5,-,N/A,,Overcast,280,2013-02-13 10:13:00
4:31 AM,23.0,19.4,86,29.71,10.0,Calm,Calm,-,N/A,,Overcast,0,2013-02-13 10:31:00
4:52 AM,23.0,19.4,86,29.70,10.0,Calm,Calm,-,N/A,,Overcast,0,2013-02-13 10:52:00
5:13 AM,23.0,19.4,86,29.69,10.0,Calm,Calm,-,N/A,,Overcast,0,2013-02-13 11:13:00
5:32 AM,23.0,19.4,86,29.69,10.0,Calm,Calm,-,N/A,,Overcast,0,2013-02-13 11:32:00
5:53 AM,19.4,17.6,93,29.69,10.0,Calm,Calm,-,N/A,,Scattered Clouds,0,2013-02-13 11:53:00
6:13 AM,17.6,15.8,93,29.69,5.0,Calm,Calm,-,N/A,,Clear,0,2013-02-13 12:13:00
6:32 AM,15.8,12.2,86,29.68,4.0,Calm,Calm,-,N/A,,Clear,0,2013-02-13 12:32:00
6:53 AM,15.8,12.2,86,29.68,0.2,Calm,Calm,-,N/A,Fog,Light Freezing Fog,0,2013-02-13 12:53:00
7:13 AM,12.2,10.4,92,29.68,0.2,Calm,Calm,-,N/A,Fog,Light Freezing Fog,0,2013-02-13 13:13:00
7:33 AM,10.4,8.6,92,29.68,0.2,Calm,Calm,-,N/A,Fog,Light Freezing Fog,0,2013-02-13 13:33:00
7:52 AM,10.4,8.6,92,29.68,0.2,Calm,Calm,-,N/A,Fog,Light Freezing Fog,0,2013-02-13 13:52:00
8:12 AM,12.2,10.4,92,29.67,0.2,Calm,Calm,-,N/A,Fog,Light Freezing Fog,0,2013-02-13 14:12:00
8:33 AM,12.2,10.4,92,29.67,0.8,Calm,Calm,-,N/A,,Overcast,0,2013-02-13 14:33:00
8:52 AM,14.0,12.2,93,29.67,0.2,Calm,Calm,-,N/A,Fog,Light Freezing Fog,0,2013-02-13 14:52:00
9:13 AM,19.4,17.6,93,29.67,2.5,Calm,Calm,-,N/A,,Clear,0,2013-02-13 15:13:00
9:33 AM,21.2,21.2,100,29.66,7.0,Calm,Calm,-,N/A,,Clear,0,2013-02-13 15:33:00
9:53 AM,23.0,21.2,93,29.66,10.0,WSW,3.5,-,N/A,,Clear,240,2013-02-13 15:53:00
10:12 AM,24.8,21.2,86,29.66,10.0,NNE,3.5,-,N/A,,Clear,30,2013-02-13 16:12:00
10:33 AM,26.6,23.0,86,29.66,10.0,North,3.5,-,N/A,,Clear,360,2013-02-13 16:33:00
11:12 AM,28.4,23.0,80,29.66,10.0,Calm,Calm,-,N/A,,Clear,0,2013-02-13 17:12:00
11:33 AM,28.4,23.0,80,29.65,10.0,Calm,Calm,-,N/A,,Clear,0,2013-02-13 17:33:00
11:52 AM,30.2,24.8,80,29.65,10.0,North,3.5,-,N/A,,Clear,350,2013-02-13 17:52:00
12:11 PM,30.2,24.8,80,29.64,10.0,North,4.6,-,N/A,,Clear,350,2013-02-13 18:11:00
12:52 PM,33.8,24.8,70,29.63,10.0,Calm,Calm,-,N/A,,Clear,0,2013-02-13 18:52:00
1:12 PM,33.8,24.8,70,29.62,10.0,Calm,Calm,-,N/A,,Clear,0,2013-02-13 19:12:00
1:33 PM,33.8,24.8,70,29.62,10.0,Calm,Calm,-,N/A,,Clear,0,2013-02-13 19:33:00
1:53 PM,33.8,24.8,70,29.62,10.0,Calm,Calm,-,N/A,,Clear,0,2013-02-13 19:53:00
2:13 PM,33.8,24.8,70,29.61,10.0,SW,3.5,-,N/A,,Clear,230,2013-02-13 20:13:00
2:32 PM,33.8,24.8,70,29.61,10.0,South,3.5,-,N/A,,Clear,190,2013-02-13 20:32:00
2:53 PM,33.8,24.8,70,29.60,10.0,SW,3.5,-,N/A,,Clear,220,2013-02-13 20:53:00
3:12 PM,33.8,24.8,70,29.61,10.0,Calm,Calm,-,N/A,,Clear,0,2013-02-13 21:12:00
3:33 PM,33.8,24.8,70,29.61,10.0,Calm,Calm,-,N/A,,Clear,0,2013-02-13 21:33:00
3:53 PM,33.8,24.8,70,29.61,10.0,Calm,Calm,-,N/A,,Clear,0,2013-02-13 21:53:00
4:13 PM,33.8,24.8,70,29.61,10.0,Calm,Calm,-,N/A,,Clear,0,2013-02-13 22:13:00
4:32 PM,33.8,24.8,70,29.61,10.0,Calm,Calm,-,N/A,,Clear,0,2013-02-13 22:32:00
4:52 PM,33.8,24.8,70,29.61,10.0,Calm,Calm,-,N/A,,Clear,0,2013-02-13 22:52:00
5:13 PM,32.0,24.8,75,29.61,10.0,Calm,Calm,-,N/A,,Mostly Cloudy,0,2013-02-13 23:13:00
5:33 PM,33.8,24.8,70,29.61,10.0,Calm,Calm,-,N/A,,Overcast,0,2013-02-13 23:33:00
5:52 PM,32.0,24.8,75,29.62,10.0,Calm,Calm,-,N/A,,Overcast,0,2013-02-13 23:52:00
6:12 PM,30.2,24.8,80,29.62,10.0,North,3.5,-,N/A,,Overcast,10,2013-02-14 00:12:00
6:32 PM,30.2,24.8,80,29.62,10.0,North,4.6,-,N/A,,Overcast,360,2013-02-14 00:32:00
6:52 PM,30.2,24.8,80,29.63,10.0,North,4.6,-,N/A,,Overcast,10,2013-02-14 00:52:00
7:12 PM,30.2,24.8,80,29.63,10.0,North,5.8,-,N/A,,Overcast,360,2013-02-14 01:12:00
7:33 PM,30.2,24.8,80,29.63,10.0,NNE,5.8,-,N/A,,Overcast,20,2013-02-14 01:33:00
7:52 PM,30.2,24.8,80,29.64,10.0,NNE,4.6,-,N/A,,Overcast,20,2013-02-14 01:52:00
8:13 PM,30.2,24.8,80,29.64,10.0,NNE,4.6,-,N/A,,Overcast,20,2013-02-14 02:13:00
8:32 PM,30.2,24.8,80,29.65,10.0,NNE,4.6,-,N/A,,Overcast,20,2013-02-14 02:32:00
8:52 PM,30.2,24.8,80,29.65,10.0,NNE,4.6,-,N/A,,Overcast,20,2013-02-14 02:52:00
9:13 PM,30.2,24.8,80,29.66,10.0,NNE,4.6,-,N/A,,Overcast,20,2013-02-14 03:13:00
9:33 PM,30.2,24.8,80,29.67,10.0,North,4.6,-,N/A,,Overcast,360,2013-02-14 03:33:00
9:52 PM,30.2,24.8,80,29.67,10.0,North,3.5,-,N/A,,Overcast,350,2013-02-14 03:52:00
10:13 PM,30.2,24.8,80,29.67,10.0,NNW,3.5,-,N/A,,Overcast,340,2013-02-14 04:13:00
10:33 PM,28.4,24.8,86,29.68,10.0,Calm,Calm,-,N/A,,Overcast,0,2013-02-14 04:33:00
10:53 PM,28.4,24.8,86,29.68,10.0,NW,5.8,-,N/A,,Overcast,320,2013-02-14 04:53:00
11:13 PM,26.6,23.0,86,29.69,10.0,NNW,6.9,-,N/A,,Scattered Clouds,340,2013-02-14 05:13:00
11:33 PM,26.6,21.2,80,29.70,10.0,NNW,6.9,-,N/A,,Scattered Clouds,340,2013-02-14 05:33:00
11:53 PM,26.6,21.2,80,29.70,10.0,NNW,4.6,-,N/A,,Scattered Clouds,340,2013-02-14 05:53:00